Malaysia Virtual Airlines Airport Information Service

Kuantan

ICAO: WMKD Country: Malaysia
Latitude: 3.77539 Longitude: 103.209
Latest Arrival : MH1276 (WMKK-WMKD) Latest Departure : MH1269 (WMKD-WMKK)


WX CaptureLIVE
Data provided by noaa.gov | Fetched at 04:53:54

METAR : WMKD 290400Z VRB03KT 9999 FEW020 31/24 Q1008 NOSIG

TAF : WMKD 282300Z 2900/3000 VRB03KT 9999 FEW020=


Runway Data for WMKD
Data provided by openaviationdata.com

Runway ID Mag Var Hdg Length Elevation Surface ILS Freq ILS Id ILS Slope
18 0 182° 9245 ft 58 ft Tarmac -- -- --
36 0 9245 ft 58 ft Tarmac 109.5 IKN 3

Kuantan, Malaysia
Use only for reference purposes



Not for navigational purposes.